Vertical_Velocity
-2 1 1 1 -2 1 0 0 -6 1 -3 -9 1 -1 -2 0 -0 0 -1 -2 -1 -0 0 -0 -0 -0 1 1 1 -0 1 -3 -1 0 -1 -1 -1 -1 -3 -7 -3 -1 -5 -19
-1 -2 -1 2 1 -3 -2 -0 -1 -1 -0 -6 -1 -0 0 -1 0 0 -0 -0 -1 -0 -1 -3 -1 0 1 0 -1 -1 -3 -2 -3 -12 -10 -4 0 -0 -1 -1 -2 -2 -6 -16
-2 -0 1 -1 -2 3 5 -3 -7 -3 -4 1 -5 -1 0 -1 0 -0 0 -1 -0 -1 -0 -0 -1 0 -0 -0 -1 0 -2 -0 -6 -10 -9 -4 1 1 0 -4 -2 -3 -6 -4
-7 -4 2 -3 -2 -1 -1 -2 -0 1 -2 -4 -0 -2 -1 -0 -1 -0 0 -1 -1 -2 -1 0 -0 0 1 0 0 -0 -4 -1 0 -1 -1 1 -1 -1 0 0 -3 -5 -4 -1
3 -3 -2 1 -3 -2 -0 1 -2 -1 -0 -0 -1 -0 -1 -2 1 -2 -1 0 -0 0 -2 -5 -3 -3 -1 -4 1 -0 -0 -1 -0 -2 -1 1 0 -0 0 -0 -0 1 2 -11
4 0 -2 -4 -1 1 -5 2 -2 1 1 0 -2 -2 -1 -3 -2 1 -0 -0 -2 -0 -1 -0 2 1 1 -1 -4 -0 -2 -2 -1 -3 0 -1 -3 -6 -2 -1 0 -6 -1 -13
-4 -1 -2 -0 -3 -9 1 -3 2 -2 -1 -1 -1 0 0 -0 -1 -0 1 -0 -2 2 -1 1 -1 -2 0 -1 -0 -0 -1 -1 -1 -1 -3 -3 -13 -1 -2 -4 -1 0 -0 -1
-1 3 -5 -4 -2 -1 -4 -2 0 -2 -1 -0 -0 -0 -1 1 2 -2 -0 1 5 2 -2 -4 -3 -5 -4 -0 0 -0 -1 -2 -1 -1 -0 -11 -1 1 -3 -4 1 -1 -1 -0
-4 4 1 -3 -0 -6 -1 -2 1 -1 -3 -5 1 -0 -0 -2 -0 -1 1 2 -5 -0 -1 -1 -1 -2 -3 -1 -1 -0 -1 -1 -5 0 -0 -2 -4 -0 0 -1 -5 0 -1 0
-3 -5 5 -2 -0 0 -5 0 -4 1 -0 0 -2 -2 -3 1 -0 -1 0 0 2 -2 -0 0 -1 -2 -4 -3 -1 -1 0 0 -2 -0 -1 -10 -4 -2 1 -7 -16 1 0 -0
-3 -1 1 3 -7 -1 -1 -3 0 -2 -2 1 0 1 -1 0 1 -3 -0 -4 -3 -1 -1 -1 -2 1 -3 -1 -3 -4 -5 -5 -1 2 2 -9 0 0 -0 -3 1 -1 -1 -1
-2 -3 -1 4 -1 4 -2 -0 -2 -8 1 1 0 -0 2 -0 3 -0 2 -1 -2 -2 -3 -0 -0 -0 -0 -0 -1 1 -2 -9 -9 -8 -13 -2 0 2 1 3 0 1 1 2
-4 -5 -6 -2 5 2 1 0 -2 2 -2 -0 4 -1 -4 4 -4 1 1 1 2 0 0 -4 -1 -1 -3 -1 -4 1 -1 1 -1 -2 -1 -2 2 1 4 -0 1 1 2 -1
-2 -1 -2 4 -3 -2 -0 1 -4 -0 -1 1 -2 2 -2 4 1 -2 5 2 0 0 1 -0 -1 -1 -0 -2 -2 -0 -2 0 -2 -4 -1 1 1 -0 -3 -1 0 -1 0 -2
1 3 2 -0 -3 -3 2 2 -5 0 -3 -0 -2 -0 5 -0 2 4 -4 0 3 1 -1 -0 -2 -0 0 1 -1 -0 -2 -4 -3 -4 -0 -1 -1 -1 0 0 -1 -1 0 0
12 -2 7 5 5 -1 1 1 -2 9 -5 -2 -1 -0 3 -4 2 -0 -0 2 0 2 0 -2 -0 1 -0 0 -1 -2 0 -2 -0 -1 1 1 0 0 1 -1 0 -1 -0 1
11 -11 11 -11 -1 3 -3 1 -1 -5 2 -2 -3 -2 1 0 2 1 0 -1 1 1 -2 1 -0 -0 1 0 -1 1 -0 -1 2 2 2 2 0 -1 -2 1 1 -1 0 2
0 -3 3 -5 4 4 1 1 2 -2 -2 1 0 -5 -1 1 0 -0 1 1 1 2 -0 1 0 2 1 0 -1 0 0 -0 -1 -1 -1 -0 1 3 4 3 1 2 1 -1
-4 -3 -2 12 4 1 -2 0 6 5 -7 -0 2 -1 -3 0 1 0 1 1 -0 0 0 -1 2 -1 -1 -3 -1 -0 -0 -1 -1 0 1 -0 -2 -2 -2 -2 -0 -2 -2 -4
1 1 3 3 -0 -0 2 2 3 5 11 4 1 2 -2 2 1 1 -1 0 -0 0 -4 1 1 -2 -0 -1 1 1 -1 0 2 -1 -2 -2 -2 0 0 -1 1 1 -2 -6
2 0 -0 -0 -1 2 -1 1 0 1 1 2 -3 -0 -1 -0 -2 -1 1 -2 -0 1 -5 -1 -0 -2 -1 1 0 -2 1 1 0 -1 -1 -1 -0 0 -3 -3 1 3 2 1
-1 -4 -2 1 1 1 2 -0 1 1 -2 1 1 -0 1 -0 -1 -1 0 -1 0 -1 -0 2 -0 -3 -0 1 1 -1 -0 -0 1 1 -1 1 1 4 1 -1 -3 0 -0 -3
1 1 0 -1 -0 -0 0 -1 0 1 -1 -2 -1 1 -0 -1 0 1 0 1 -2 0 -2 -3 -4 -3 1 0 3 1 1 -2 -3 -1 2 1 -1 2 3 -3 -1 -1 -4 -3
-1 -1 -4 -7 -1 -2 -3 -2 -2 -0 0 0 0 -1 -2 0 -0 -1 -1 -2 -1 0 0 -5 -2 -5 -1 1 -1 -3 -3 2 -0 -1 -1 0 2 -3 -2 -1 1 3 -3 -3
-1 -1 -5 -1 -2 2 -1 1 1 1 2 -1 -1 -0 -0 0 -2 0 -3 -3 -1 -2 -5 -3 -3 -4 -8 -11 -5 -5 -7 -3 -4 -0 -3 -3 -2 -2 -7 -1 1 1 0 -1
-1 0 -1 0 0 -0 -0 -0 1 1 1 0 0 -1 -3 -1 -1 -2 -2 0 -3 -7 -3 -7 -3 -3 -2 -2 -1 -2 1 2 -0 1 1 -0 -0 1 -2 -1 -0 -3 3 -3
-1 -2 -1 1 -0 -2 -2 0 1 -0 0 -1 -1 -3 -9 -2 -2 -0 -2 -4 -5 -3 -5 -2 -0 -2 -4 -1 -0 -3 -2 -5 -2 3 2 -1 1 2 -1 -7 -9 3 -1 -2
Height
1535 1529 1524 1520 1517 1514 1512 1511 1511 1510 1508 1510 1518 1526 1524 1525 1526 1526 1526 1526 1528 1530 1531 1536 1538 1539 1539 1537 1536 1538 1540 1551 1569 1554 1554 1553 1553 1555 1560 1575 1575 1593 1597 1567
1538 1531 1525 1520 1516 1515 1514 1512 1511 1511 1508 1523 1528 1526 1526 1525 1526 1527 1527 1528 1528 1529 1533 1537 1539 1540 1540 1539 1539 1540 1541 1553 1575 1563 1558 1555 1555 1555 1558 1564 1571 1574 1584 1564
1539 1534 1527 1522 1517 1514 1515 1514 1516 1514 1512 1517 1522 1526 1528 1528 1527 1527 1527 1528 1529 1531 1534 1536 1540 1542 1541 1540 1541 1541 1541 1549 1551 1563 1548 1551 1555 1553 1555 1556 1575 1566 1566 1553
1540 1535 1529 1523 1519 1516 1516 1516 1520 1520 1523 1523 1522 1524 1528 1530 1530 1529 1529 1529 1528 1529 1534 1535 1538 1541 1540 1540 1540 1541 1543 1549 1549 1547 1547 1546 1544 1543 1550 1555 1549 1550 1541 1544
1540 1536 1531 1525 1521 1518 1517 1517 1519 1522 1523 1524 1525 1525 1527 1528 1529 1530 1530 1530 1529 1529 1531 1531 1536 1536 1538 1536 1540 1540 1542 1548 1547 1547 1543 1545 1543 1541 1541 1542 1541 1541 1538 1531
1541 1537 1533 1529 1523 1521 1520 1520 1520 1521 1526 1526 1527 1528 1527 1526 1526 1528 1529 1530 1532 1532 1531 1531 1532 1534 1533 1535 1538 1541 1543 1547 1551 1548 1547 1543 1539 1525 1527 1529 1529 1529 1536 1523
1541 1537 1534 1530 1527 1525 1524 1522 1521 1522 1527 1527 1527 1527 1526 1527 1529 1528 1528 1529 1530 1534 1534 1535 1534 1535 1535 1536 1538 1539 1545 1547 1550 1554 1548 1543 1518 1517 1518 1521 1521 1523 1522 1521
1541 1538 1534 1532 1529 1527 1525 1524 1524 1522 1527 1527 1526 1525 1528 1529 1527 1529 1532 1532 1532 1532 1534 1539 1541 1543 1539 1540 1540 1540 1541 1546 1551 1552 1557 1535 1514 1515 1518 1517 1519 1518 1520 1518
1539 1539 1535 1533 1530 1528 1526 1525 1525 1523 1525 1527 1526 1525 1526 1529 1532 1530 1528 1530 1532 1535 1536 1538 1539 1543 1536 1542 1543 1542 1542 1543 1549 1557 1555 1537 1514 1513 1513 1513 1523 1516 1517 1518
1536 1537 1535 1533 1532 1528 1527 1526 1524 1526 1522 1523 1525 1527 1526 1525 1528 1531 1531 1531 1532 1533 1539 1542 1542 1536 1535 1538 1542 1547 1546 1548 1548 1549 1551 1532 1514 1511 1512 1518 1524 1515 1516 1517
1534 1534 1534 1531 1530 1530 1527 1526 1526 1525 1525 1523 1523 1523 1523 1524 1524 1527 1529 1532 1532 1535 1537 1540 1538 1538 1532 1533 1534 1538 1540 1547 1546 1547 1553 1540 1511 1514 1515 1516 1514 1515 1516 1515
1530 1532 1532 1531 1529 1527 1526 1525 1523 1524 1525 1523 1521 1521 1521 1522 1523 1523 1524 1523 1523 1526 1533 1534 1534 1534 1537 1533 1527 1528 1531 1525 1532 1531 1524 1511 1513 1513 1513 1513 1514 1514 1513 1512
1525 1525 1528 1528 1528 1526 1525 1523 1523 1521 1521 1520 1518 1516 1520 1518 1519 1522 1524 1523 1521 1521 1522 1524 1528 1530 1529 1532 1529 1525 1521 1518 1519 1519 1512 1512 1512 1513 1513 1513 1513 1512 1511 1509
1519 1520 1524 1523 1522 1523 1523 1522 1521 1522 1521 1521 1516 1515 1515 1516 1514 1516 1520 1520 1521 1521 1522 1521 1522 1525 1521 1523 1522 1523 1518 1518 1516 1514 1508 1510 1511 1512 1513 1512 1511 1509 1508 1507
1511 1514 1515 1518 1518 1519 1519 1518 1518 1519 1523 1520 1516 1514 1512 1512 1514 1511 1513 1517 1520 1520 1521 1521 1522 1517 1520 1517 1519 1519 1513 1512 1514 1511 1508 1507 1508 1509 1510 1510 1509 1508 1506 1505
1502 1505 1509 1512 1512 1514 1517 1514 1514 1515 1515 1520 1517 1512 1508 1511 1512 1511 1511 1512 1516 1519 1516 1515 1514 1513 1514 1516 1517 1505 1508 1508 1508 1508 1508 1507 1507 1507 1506 1505 1506 1505 1505 1503
1495 1499 1502 1506 1509 1510 1514 1514 1513 1514 1515 1519 1515 1509 1508 1508 1510 1509 1509 1511 1513 1516 1517 1513 1511 1511 1512 1512 1511 1503 1504 1507 1508 1507 1506 1506 1506 1506 1506 1505 1503 1503 1503 1501
1494 1497 1500 1502 1506 1508 1510 1511 1510 1513 1516 1517 1515 1509 1509 1508 1508 1508 1509 1509 1511 1512 1513 1513 1509 1508 1508 1508 1500 1500 1501 1503 1505 1505 1505 1505 1505 1504 1504 1503 1502 1501 1499 1497
1495 1497 1501 1503 1505 1506 1507 1508 1509 1511 1518 1513 1511 1512 1510 1506 1506 1508 1509 1509 1511 1511 1510 1509 1510 1506 1503 1497 1498 1499 1500 1502 1503 1504 1503 1503 1503 1502 1501 1500 1499 1497 1495 1494
1495 1499 1501 1502 1503 1506 1506 1507 1509 1508 1507 1508 1505 1504 1507 1507 1505 1506 1509 1509 1510 1510 1507 1507 1506 1500 1497 1497 1496 1497 1499 1501 1501 1502 1502 1502 1501 1501 1499 1498 1497 1495 1492 1490
1495 1497 1499 1501 1503 1505 1506 1506 1505 1506 1506 1502 1501 1503 1504 1505 1506 1506 1506 1508 1508 1509 1508 1506 1500 1501 1496 1496 1496 1498 1499 1500 1500 1500 1500 1500 1499 1497 1494 1492 1491 1489 1486 1484
1495 1496 1500 1501 1502 1503 1506 1503 1503 1500 1499 1499 1500 1503 1503 1504 1504 1504 1506 1507 1508 1506 1506 1505 1499 1496 1496 1497 1498 1499 1499 1499 1499 1498 1497 1496 1495 1493 1490 1487 1485 1483 1480 1477
1494 1496 1497 1499 1503 1505 1507 1505 1497 1496 1495 1497 1500 1502 1501 1504 1504 1503 1505 1506 1507 1505 1510 1505 1497 1494 1495 1495 1496 1497 1498 1497 1496 1495 1494 1492 1490 1488 1485 1482 1480 1477 1473 1471
1494 1495 1500 1498 1503 1498 1494 1493 1492 1493 1494 1495 1498 1499 1499 1501 1503 1502 1504 1503 1505 1508 1511 1503 1493 1492 1494 1495 1495 1495 1494 1493 1491 1489 1487 1485 1483 1481 1479 1476 1473 1469 1466 1462
1492 1493 1499 1497 1490 1489 1490 1490 1491 1493 1494 1494 1497 1498 1499 1501 1503 1501 1503 1507 1502 1497 1499 1492 1489 1490 1492 1493 1492 1491 1490 1488 1485 1483 1481 1479 1476 1473 1469 1467 1464 1461 1457 1454
1491 1490 1489 1489 1489 1490 1490 1489 1491 1493 1493 1495 1495 1498 1503 1504 1504 1507 1508 1506 1506 1494 1487 1485 1485 1486 1487 1488 1488 1487 1485 1482 1479 1476 1474 1471 1469 1465 1461 1457 1454 1452 1448 1444
1487 1485 1484 1485 1485 1485 1486 1488 1490 1492 1493 1494 1496 1506 1505 1505 1510 1508 1498 1498 1486 1481 1481 1482 1482 1483 1483 1483 1482 1480 1477 1474 1471 1468 1466 1463 1459 1456 1452 1447 1443 1442 1438 1435